Location: �chenoz-la-M�line
(47.6009°N, 6.1354°E)
Time: 08:59:29
(UTC+00:00)

USA 238 - Visible Passes

Search period start: 09 May 2021 00:00
Search period end: 19 May 2021 00:00
Orbit: 994 x 1218 km, 63.4° (Epoch: 18 April)

Date Brightness Start Highest point End Pass type
(mag) Time Alt. Az. Time Alt. Az. Time Alt. Az.
09 May 6.3 03:00:01 10° ESE 03:01:16 11° ESE 03:02:33 10° E visible
11 May 5.5 03:16:33 10° SSE 03:21:40 25° ESE 03:26:56 10° ENE visible
12 May 5.9 02:33:52 10° SE 02:37:22 15° ESE 02:40:56 10° ENE visible
14 May 5.0 02:52:14 10° S 02:57:53 32° ESE 03:03:46 10° NE visible
15 May 5.5 02:08:54 10° SSE 02:13:30 20° ESE 02:18:13 10° ENE visible
16 May 5.8 01:26:57 10° SE 01:29:15 12° ESE 01:31:36 10° E visible
16 May 4.0 03:12:19 10° SSW 03:18:45 63° ESE 03:25:32 10° NE visible
17 May 4.5 02:28:06 10° S 02:34:09 42° ESE 02:40:29 10° NE visible
18 May 5.1 01:44:34 11° SSE 01:49:41 27° ESE 01:55:11 10° ENE visible
